Casper, WY

7:23 AM MST on December 07, 2019 (GMT -0700)
Natrona County International

Weather History for KCPR - October, 2019

Change the Weather History Date:

Wednesday, October 2, 2019

  Actual Average Record
Temperature  
Mean Temperature 40 °F 50 °F  
Max Temperature 49 °F 65 °F 86 °F (1992)
Min Temperature 30 °F 35 °F 15 °F (1950)
Degree Days  
Heating Degree Days 25 15  
Month to date heating degree days 48 30  
Since 1 July heating degree days 219 315  
Cooling Degree Days 0 0  
Month to date cooling degree days 0 0  
Year to date cooling degree days 441 422  
Moisture  
Dew Point 34 °F    
Average Humidity 79    
Maximum Humidity 100    
Minimum Humidity 57    
Precipitation  
Precipitation 0.04 in 0.04 in 1.54 in (1986)
Month to date precipitation 0.22 0.08  
Year to date precipitation 10.92 10.24  
Snow  
Snow 0.00 in 0.20 in - ()
Month to date snowfall 0.0 0.4  
Since 1 July snowfall 0.0 2.2  
Since 1 September snowfall 0.0 2.2  
Snow Depth 0.00 in    
Sea Level Pressure  
Sea Level Pressure 30.08 in    
Wind  
Wind Speed 12 mph (WNW)    
Max Wind Speed 38 mph    
Max Gust Speed 49 mph    
Visibility 9 miles    
Events Rain , Snow , Thunderstorm    
T = Trace of Precipitation, MM = Missing Value Source: NWS Daily Summary

Daily Weather History Graph

Daily Weather History Graph

Search for Another Location

Airport or City:

Astronomy

Oct. 02, 2019 Rise Set
Actual Time 7:04 AM MDT 6:45 PM MDT
Civil Twilight 6:35 AM MDT 7:13 PM MDT
Nautical Twilight 6:02 AM MDT 7:46 PM MDT
Astronomical Twilight 5:29 AM MDT 8:19 PM MDT
Moon 11:38 AM MDT (10/2) 9:35 PM MDT (10/2)
Length of Visible Light 12h 38m
Length of Day
11h 41m
Waxing Crescent, 21% of the Moon is Illuminated
Oct 2
Waxing Crescent
Oct 5
First Quarter
Oct 13
Full
Oct 21
Last Quarter
Oct 27
New

Hourly Weather History & Observations

Time (MDT) Temp. Windchill Dew Point Humidity Pressure Visibility Wind Dir Wind Speed Gust Speed Precip Events Conditions
12:53 AM 36.0 °F 26.7 °F 36.0 °F 100% 30.03 in 10.0 mi NE 15.0 mph - N/A   Overcast
1:53 AM 36.0 °F 27.1 °F 36.0 °F 100% 30.04 in 10.0 mi ENE 13.8 mph - N/A   Overcast
2:53 AM 36.0 °F 27.5 °F 35.1 °F 97% 30.03 in 10.0 mi NE 12.7 mph - N/A   Overcast
3:45 AM 34.0 °F 24.6 °F 34.0 °F 100% 30.03 in 2.5 mi NNW 13.8 mph - 0.01 in Snow Light Snow
3:53 AM 34.0 °F 23.8 °F 34.0 °F 100% 30.05 in 2.0 mi North 16.1 mph - 0.01 in Snow Light Snow
4:06 AM 34.0 °F 25.0 °F 34.0 °F 100% 30.04 in 2.5 mi North 12.7 mph - 0.01 in Snow Light Snow
4:13 AM 34.0 °F 25.5 °F 34.0 °F 100% 30.03 in 4.0 mi North 11.5 mph - 0.01 in   Overcast
4:20 AM 34.0 °F 26.0 °F 34.0 °F 100% 30.04 in 5.0 mi North 10.4 mph - 0.01 in   Overcast
4:34 AM 34.0 °F 26.6 °F 34.0 °F 100% 30.03 in 6.0 mi NE 9.2 mph - 0.01 in   Overcast
4:53 AM 35.1 °F 28.6 °F 35.1 °F 100% 30.05 in 10.0 mi NE 8.1 mph - 0.01 in   Overcast
5:32 AM 35.1 °F 26.9 °F 35.1 °F 100% 30.02 in 10.0 mi ENE 11.5 mph - N/A   Overcast
5:45 AM 35.1 °F 30.1 °F 35.1 °F 100% 30.03 in 10.0 mi NE 5.8 mph - N/A   Overcast
5:53 AM 35.1 °F 28.6 °F 35.1 °F 100% 30.04 in 10.0 mi NE 8.1 mph - N/A   Overcast
6:53 AM 35.1 °F 30.1 °F 35.1 °F 100% 30.04 in 10.0 mi NNE 5.8 mph - N/A   Overcast
7:53 AM 35.1 °F 31.0 °F 35.1 °F 100% 30.06 in 7.0 mi NNW 4.6 mph - N/A   Overcast
8:09 AM 35.1 °F 31.0 °F 35.1 °F 100% 30.03 in 6.0 mi NNW 4.6 mph - N/A   Overcast
8:53 AM 36.0 °F 30.3 °F 36.0 °F 100% 30.06 in 4.0 mi WNW 6.9 mph - N/A   Overcast
9:53 AM 37.0 °F 31.6 °F 37.0 °F 100% 30.07 in 9.0 mi WNW 6.9 mph - N/A   Overcast
10:53 AM 39.0 °F 34.0 °F 37.0 °F 93% 30.06 in 10.0 mi WSW 6.9 mph - N/A   Overcast
11:10 AM 39.9 °F 33.9 °F 37.9 °F 93% 30.05 in 10.0 mi WSW 9.2 mph - N/A   Overcast
11:34 AM 39.9 °F 34.5 °F 37.9 °F 93% 30.04 in 10.0 mi SW 8.1 mph - N/A   Overcast
11:50 AM 39.2 °F 35.0 °F 37.4 °F 93% 30.04 in 10.0 mi WSW 5.8 mph - 0.00 in Rain Light Rain
11:53 AM 39.9 °F 37.8 °F 37.9 °F 93% 30.04 in 10.0 mi WSW 3.5 mph - 0.00 in   Mostly Cloudy
12:29 PM 43.0 °F 40.3 °F 37.9 °F 82% 30.03 in 10.0 mi WSW 4.6 mph - N/A Thunderstorm Mostly Cloudy
12:53 PM 42.1 °F 35.2 °F 37.9 °F 85% 30.05 in 6.0 mi West 12.7 mph 31.1 mph 0.02 in Rain , Thunderstorm Light Rain
1:20 PM 44.1 °F 35.9 °F 37.0 °F 76% 30.04 in 10.0 mi WSW 19.6 mph 26.5 mph 0.00 in   Overcast
1:53 PM 46.9 °F - 35.1 °F 63% 30.01 in 10.0 mi West 16.1 mph 29.9 mph 0.00 in   Overcast
2:53 PM 43.0 °F 32.0 °F 34.0 °F 71% 30.06 in 10.0 mi West 33.4 mph 47.2 mph 0.00 in Rain Light Rain
3:53 PM 44.1 °F 34.8 °F 32.0 °F 63% 30.09 in 10.0 mi WNW 25.3 mph 36.8 mph 0.00 in Rain Light Rain
4:53 PM 46.0 °F 38.3 °F 28.9 °F 51% 30.12 in 10.0 mi West 20.7 mph 32.2 mph 0.00 in   Clear
5:53 PM 43.0 °F 33.8 °F 28.9 °F 58% 30.16 in 10.0 mi WNW 23.0 mph 32.2 mph N/A   Mostly Cloudy
6:53 PM 37.9 °F 32.1 °F 28.9 °F 70% 30.20 in 10.0 mi West 8.1 mph - 0.00 in   Clear
7:53 PM 35.1 °F 27.9 °F 28.9 °F 78% 30.24 in 10.0 mi West 9.2 mph - N/A   Clear
8:53 PM 33.1 °F 26.1 °F 30.0 °F 89% 30.25 in 10.0 mi SW 8.1 mph - N/A   Clear
9:53 PM 34.0 °F 26.0 °F 30.0 °F 85% 30.25 in 10.0 mi SW 10.4 mph - N/A   Clear
10:53 PM 32.0 °F 24.2 °F 28.9 °F 88% 30.25 in 10.0 mi WSW 9.2 mph - N/A   Clear
11:53 PM 32.0 °F 24.2 °F 28.0 °F 85% 30.24 in 10.0 mi WSW 9.2 mph - N/A   Clear